GSAT0215 (GALILEO 19) (43055 NORAD) Tracking and Keplerian Element Data

This shows tracking and keplerian element data for the satellite.

Feedback or suggestion? Click here.




ElementValue
Catalog43055
NameGSAT0215 (GALILEO 19)
Epoch Orbit841
Epoch Day110.60926618
Epoch Year2019
RAAN293.4064
Inclination56.6075
Eccentricity4.07E-05
Argument of Perigee151.6622
Mean Anonmoly208.3129
Mean Motion1.70474008
Decay Rate-3.6E-07
L11 43055U 17079A 19110.60926618 -.00000036 00000-0 00000-0 0 9991
L22 43055 56.6075 293.4064 0000407 151.6622 208.3129 1.70474008 8419

Live tracking and technical data element details for GSAT0215 (GALILEO 19) (NORAD 43055). GSAT0215 (GALILEO 19) can be tracked NOW for your location showing map with azimuth and elevation plus other details from your city location.

Track the satellite on the map from your city or location and see movement details for azimuth, elevation, latitude, longitude, range, height, and movement on the map or in text.







IsCatalogInMostPopularTable: catalog: 43055, numindb: 260
Update: records affected: 1



GetName: 43055 GSAT0215 (GALILEO 19)

Hit Count: updated at: Tue, 23 Apr 2019 02:10:18 GMT